RH
30 31 32 33 33 32 32 32 33 32 31 30 29 29 29 27 24 23 24 25 26 26 28 29 31 33 34 34 33 32 33 36
33 33 33 32 32 32 33 32 32 31 31 30 30 30 30 31 30 28 26 26 28 28 29 29 31 34 36 37 36 35 36 37
34 33 32 32 33 32 34 33 34 33 32 32 32 36 34 33 34 33 32 31 31 30 30 30 30 32 34 38 41 45 44 43
34 34 33 33 36 34 35 35 35 36 35 34 38 36 38 36 36 36 38 37 37 36 35 36 37 46 45 37 39 44 46 47
34 34 32 31 33 32 34 36 36 36 39 37 36 36 37 40 42 41 43 41 45 44 44 47 49 49 51 49 46 45 48 47
35 36 34 33 33 35 36 38 40 41 43 39 37 40 42 44 47 49 48 51 52 54 56 56 56 56 56 56 55 55 53 52
34 35 36 35 36 36 37 40 43 45 45 42 45 47 49 51 52 53 54 55 56 58 59 59 58 56 53 54 56 55 58 59
33 35 37 38 38 38 40 41 45 46 47 49 49 50 52 53 52 53 54 54 55 55 55 55 54 54 54 54 47 49 50 52
35 36 40 40 42 44 46 48 47 46 50 55 54 54 55 54 52 52 51 51 51 49 48 45 42 40 38 38 37 35 37 39
39 39 41 43 48 50 52 50 48 49 53 56 57 60 57 54 50 47 47 45 41 36 32 30 28 27 28 28 29 32 34 35
41 41 46 48 52 55 52 50 48 47 50 52 51 54 53 48 44 40 34 28 22 21 25 26 28 29 32 32 33 35 32 31
45 44 49 53 56 57 57 54 52 49 50 49 50 47 44 40 31 21 21 26 28 29 30 32 34 36 35 36 37 36 34 34
46 48 53 56 58 59 59 58 56 51 50 48 44 39 28 25 24 24 27 31 32 34 34 35 35 38 33 35 32 34 38 39
43 50 54 59 61 63 63 63 57 55 51 44 38 31 28 25 25 26 28 34 35 35 36 36 35 35 32 28 29 29 34 39
46 51 56 64 65 65 66 65 59 59 51 42 35 32 29 29 30 32 33 35 37 37 37 38 37 35 33 32 30 31 31 31
47 51 56 61 63 64 68 65 64 60 51 42 37 33 34 34 34 36 37 39 41 41 39 38 35 34 33 32 33 34 31 31
51 56 56 61 65 71 68 68 64 59 48 41 38 39 37 36 38 41 42 44 45 42 41 38 37 37 35 34 33 34 33 33
54 59 62 66 72 71 72 70 65 54 45 45 46 45 43 42 44 45 46 46 43 43 40 41 37 35 35 34 33 33 33 33
60 63 68 74 78 75 74 67 59 49 47 48 46 46 48 48 47 48 48 45 43 41 39 37 37 36 34 34 33 33 31 33
63 70 73 75 74 72 66 61 58 54 50 49 49 51 52 50 51 49 47 46 44 41 39 39 36 33 31 31 32 31 30 33